Wind_Speed
10 13 16 15 18 21 23 24 24 26 22 17 21 27 23 22 24 27 27 26 27 27 27 28 26 36 44 43 41 44 49 35 35 43 37 49 48 44 41 37 39 41 36 38
14 18 17 17 19 21 20 23 25 26 25 25 29 32 29 29 31 32 33 33 30 27 27 30 29 34 42 45 41 40 35 34 35 38 51 43 40 49 51 53 46 25 34 39
17 19 19 17 19 19 22 23 24 26 25 27 29 32 30 34 35 34 34 34 33 32 30 32 35 39 38 42 45 43 34 30 38 39 47 39 46 59 44 58 43 39 40 38
20 19 21 20 20 18 22 19 21 23 25 26 23 26 34 31 29 25 18 24 26 28 29 24 35 33 36 41 41 42 37 36 33 40 43 57 42 52 55 43 55 46 46 38
25 19 20 22 22 20 25 21 23 26 29 31 30 27 38 29 31 32 30 24 23 21 20 27 30 35 35 41 44 40 36 36 36 37 38 41 47 41 55 43 55 48 49 37
28 25 26 28 25 23 23 23 25 26 30 23 37 35 41 34 34 31 26 22 17 15 13 19 22 24 32 31 27 25 35 35 33 37 38 40 39 39 41 44 38 56 60 43
27 29 29 26 30 30 28 26 21 22 19 16 34 25 18 31 15 8 18 18 14 14 15 17 16 21 19 14 17 25 28 22 30 33 39 42 43 44 47 41 42 36 61 54
31 31 24 23 23 29 30 29 20 15 15 18 34 8 23 19 7 15 9 16 17 15 14 17 17 20 15 17 22 24 30 27 26 27 34 38 43 49 50 47 45 44 36 59
31 38 29 25 23 23 26 31 28 30 24 17 33 38 35 32 38 20 17 19 18 16 14 18 19 23 18 17 22 26 30 31 29 27 26 30 35 42 48 53 53 49 49 38
24 33 27 28 25 28 25 26 27 24 7 18 22 28 24 24 16 20 16 17 14 14 15 14 19 20 20 23 24 29 31 30 29 27 31 28 28 32 38 45 51 58 56 57
23 26 32 27 28 32 27 30 30 27 27 15 16 23 22 15 3 21 16 15 13 13 15 18 17 21 23 26 22 24 27 27 27 32 35 33 30 29 31 34 41 48 58 60
24 26 30 25 24 26 29 34 30 35 17 23 22 32 8 10 12 16 12 15 18 17 15 16 19 23 26 25 23 25 27 31 34 38 41 36 34 35 34 33 35 40 48 55
18 14 20 23 26 27 16 23 21 23 18 28 19 32 25 24 32 26 20 26 20 15 18 20 21 21 24 24 25 26 27 29 32 36 37 41 45 36 35 37 36 37 41 47
24 22 26 26 33 37 26 24 19 24 20 24 26 35 28 30 26 29 36 32 26 24 22 25 25 25 27 26 27 28 28 28 29 30 33 39 49 40 34 36 39 39 39 41
10 22 26 25 30 30 34 34 31 26 30 29 35 36 36 35 36 32 33 31 29 32 27 27 25 25 26 28 32 31 34 36 41 41 45 39 48 50 42 42 41 42 39 40
21 17 21 28 27 32 37 35 36 35 33 36 36 39 34 35 35 36 36 35 32 24 21 25 27 26 27 28 31 36 43 40 45 43 49 54 59 52 45 48 48 43 41 41
23 24 24 31 25 27 24 28 33 30 28 28 27 29 27 32 26 23 30 27 33 29 26 26 30 30 32 36 41 42 45 53 52 56 60 65 51 49 43 46 48 47 44 44
17 17 20 26 22 19 28 12 11 15 17 18 23 21 22 19 20 23 16 17 20 21 27 33 39 42 45 47 50 54 50 53 55 60 58 56 58 54 61 53 51 48 46 47
13 16 13 11 17 25 28 15 22 17 19 21 10 16 19 24 22 25 23 24 31 33 34 37 41 45 48 52 52 55 55 55 53 55 55 57 60 65 63 58 56 57 47 49
6 10 15 12 6 7 10 14 17 11 19 10 17 22 23 25 29 27 31 37 42 43 47 50 53 54 49 41 47 53 57 55 50 55 62 65 68 68 64 56 67 51 47 50
6 9 9 12 13 12 12 19 17 13 14 25 33 29 29 32 36 41 39 41 43 45 49 50 51 47 45 49 54 61 62 62 62 64 64 69 75 72 61 59 54 55 48 51
5 5 6 5 6 7 14 20 19 25 34 37 41 42 41 38 43 45 44 46 48 48 52 53 56 54 54 54 61 66 66 64 67 79 79 75 74 72 69 64 52 52 50 53
5 6 9 9 9 19 24 27 32 38 44 45 45 46 49 53 54 49 46 43 44 51 58 57 59 56 48 49 52 56 55 54 56 53 54 62 68 65 52 35 42 50 48 55
11 13 14 19 9 27 31 34 36 34 41 44 48 48 45 46 46 50 51 57 59 59 55 50 47 42 41 41 40 37 35 33 44 39 33 38 42 35 39 47 45 49 52 52
16 16 19 27 21 32 27 32 39 42 41 43 49 53 56 56 57 58 59 56 50 42 33 27 28 34 35 32 27 21 21 18 19 25 17 18 10 38 49 54 52 53 51 49
12 20 23 33 33 28 36 37 45 40 47 54 54 50 38 36 37 37 32 27 26 25 23 24 28 31 25 20 11 12 14 31 36 10 9 23 28 42 48 51 51 48 48 48
Wind_Direction
257 258 254 263 261 268 276 277 283 279 285 289 275 265 263 262 263 259 254 248 247 245 244 254 244 233 236 243 249 248 255 249 261 255 266 226 224 240 239 245 240 237 246 255
260 248 263 276 271 271 273 274 275 278 275 273 271 268 267 267 264 260 254 248 247 251 246 244 247 258 239 239 245 251 247 247 236 245 256 247 223 231 233 236 243 243 251 253
263 262 270 279 269 273 265 267 275 277 280 274 276 276 272 270 266 263 252 247 246 245 246 242 242 251 256 246 241 250 244 242 237 241 248 253 242 240 229 231 243 240 251 250
265 272 271 274 268 266 268 269 276 283 283 278 275 282 278 277 277 262 249 239 244 238 237 230 228 234 241 251 244 242 243 247 248 247 241 252 270 240 237 246 234 232 239 250
266 269 272 267 264 265 270 275 280 284 281 284 272 268 276 273 264 256 247 229 222 225 229 218 216 218 234 249 255 255 245 247 251 251 245 241 251 253 247 252 235 227 230 242
268 269 266 265 267 264 265 276 277 276 273 264 266 261 264 265 266 256 240 205 206 201 213 229 244 246 249 265 276 258 256 259 256 249 248 240 230 245 244 247 256 242 234 233
277 271 266 258 263 258 258 257 267 261 253 253 266 282 292 274 259 294 185 196 202 205 219 227 229 246 269 283 259 276 284 252 249 247 243 239 240 233 235 244 251 250 233 234
275 276 274 272 278 261 259 253 253 271 278 281 285 232 277 286 304 241 219 207 201 217 224 236 237 246 241 250 272 280 285 279 256 242 246 250 248 243 241 238 240 243 245 234
287 284 281 268 272 270 256 244 261 281 282 291 276 275 280 272 260 237 230 225 236 243 234 230 232 226 248 262 269 270 273 287 264 266 251 245 244 245 246 247 245 242 236 237
277 290 276 276 274 268 257 266 272 262 264 270 268 281 291 311 244 223 233 236 232 234 232 235 245 254 253 269 264 269 280 292 292 278 276 265 257 252 247 244 243 241 240 237
274 274 283 276 267 266 268 247 256 256 250 253 267 269 275 271 250 215 222 230 232 241 240 246 258 257 265 270 270 267 276 282 282 281 282 281 272 263 259 253 249 245 241 237
274 284 281 269 272 275 268 269 259 261 254 240 276 275 226 273 232 238 249 245 252 245 251 259 264 264 264 271 262 260 262 265 266 264 276 279 270 269 265 259 253 249 246 241
275 261 286 290 286 267 286 274 289 295 298 263 260 264 275 264 270 245 240 259 258 260 255 265 269 271 271 268 262 264 264 266 267 273 279 283 283 276 270 264 258 251 247 244
265 269 263 268 274 286 298 286 277 257 287 291 267 277 281 280 281 278 269 271 273 266 272 272 268 268 262 264 259 259 260 260 262 278 271 269 282 281 278 276 270 258 251 246
258 262 262 262 284 284 285 284 281 254 262 255 273 276 277 279 280 283 277 285 287 275 271 269 261 268 258 261 262 265 265 263 269 265 267 267 271 278 283 281 276 266 252 247
291 277 285 283 286 280 281 280 272 269 265 259 270 276 279 279 279 277 278 276 280 263 269 269 277 275 275 281 280 272 272 262 266 266 268 264 263 272 280 284 284 266 252 243
275 282 284 286 290 293 287 288 268 271 275 276 282 286 285 275 269 288 274 278 268 275 273 268 269 258 258 257 260 258 259 263 266 272 271 271 270 271 275 277 278 269 248 238
263 266 274 282 290 274 279 312 310 294 285 307 289 303 308 297 274 279 288 308 293 279 273 269 269 275 278 275 270 267 257 264 269 277 270 267 270 264 274 272 269 271 249 232
235 253 272 261 269 279 292 299 307 308 307 276 329 328 309 295 300 294 292 282 274 275 271 272 273 275 275 278 279 279 275 276 275 273 273 272 273 274 271 271 272 274 248 230
269 241 247 256 271 284 333 338 337 322 280 311 337 325 324 315 302 292 276 269 271 271 272 275 277 280 278 280 281 281 280 280 283 280 280 280 278 274 273 267 270 254 240 225
303 304 270 256 247 269 315 319 319 285 297 299 306 312 305 299 292 291 294 295 293 288 288 289 290 282 274 273 273 271 272 271 272 269 271 271 270 271 264 258 252 252 229 220
296 283 272 261 248 271 320 344 347 313 300 302 306 298 292 287 289 289 290 292 292 292 291 287 286 281 277 274 272 273 274 277 272 266 269 272 268 266 265 260 253 227 208 209
308 318 311 295 278 299 307 313 308 309 306 303 304 302 299 293 290 290 291 289 286 286 292 293 289 286 287 284 284 282 282 282 283 285 294 298 295 286 260 216 216 199 201 198
314 313 304 302 291 307 301 306 307 312 307 304 302 302 302 298 294 290 282 283 290 292 292 290 288 290 289 292 291 292 295 297 303 326 323 308 286 226 199 196 189 186 190 182
297 313 291 299 305 300 314 324 319 315 313 313 309 305 299 292 290 291 290 290 289 289 293 297 302 300 299 297 298 305 300 330 355 356 353 3 100 158 162 161 167 173 172 175
285 300 307 312 322 318 324 325 323 323 327 320 313 311 311 306 303 300 297 290 290 291 301 298 300 303 305 302 313 312 332 330 350 60 86 105 123 138 146 154 163 164 166 169
Height
3096 3096 3094 3093 3092 3091 3089 3087 3084 3083 3082 3082 3080 3080 3082 3083 3083 3082 3083 3082 3084 3086 3090 3087 3087 3087 3089 3089 3094 3098 3101 3103 3105 3111 3115 3113 3118 3123 3124 3126 3131 3137 3140 3143
3094 3091 3091 3090 3089 3088 3087 3086 3084 3083 3081 3081 3078 3075 3076 3077 3076 3075 3075 3076 3078 3079 3082 3083 3079 3079 3081 3084 3088 3090 3093 3095 3099 3102 3104 3110 3111 3116 3119 3122 3123 3126 3131 3137
3089 3088 3087 3086 3086 3084 3084 3084 3082 3080 3078 3075 3073 3068 3070 3069 3065 3063 3063 3067 3069 3071 3074 3077 3072 3071 3071 3074 3079 3081 3083 3087 3090 3091 3094 3101 3105 3109 3106 3116 3120 3121 3124 3127
3085 3085 3083 3083 3082 3082 3079 3079 3077 3075 3074 3070 3072 3061 3062 3060 3057 3057 3055 3058 3060 3063 3065 3068 3067 3064 3062 3062 3067 3071 3074 3078 3080 3082 3085 3085 3095 3096 3102 3105 3111 3113 3119 3120
3081 3081 3080 3078 3078 3079 3076 3075 3074 3073 3070 3067 3063 3062 3049 3053 3049 3048 3049 3048 3051 3055 3057 3059 3058 3058 3056 3054 3058 3062 3064 3067 3068 3072 3074 3078 3084 3090 3093 3096 3098 3101 3112 3116
3076 3076 3075 3073 3073 3073 3073 3072 3070 3068 3065 3058 3052 3054 3042 3044 3040 3036 3038 3041 3045 3049 3052 3053 3054 3053 3051 3053 3053 3053 3052 3056 3060 3062 3066 3068 3072 3076 3083 3085 3087 3096 3103 3104
3069 3067 3065 3066 3065 3066 3067 3067 3062 3057 3052 3045 3045 3042 3040 3038 3034 3035 3032 3037 3041 3045 3049 3051 3052 3049 3049 3048 3048 3047 3047 3050 3051 3053 3059 3062 3063 3066 3071 3072 3079 3082 3090 3093
3063 3059 3061 3060 3058 3058 3057 3058 3055 3054 3051 3044 3038 3039 3035 3035 3034 3035 3035 3036 3039 3040 3043 3047 3047 3047 3048 3048 3045 3042 3040 3042 3045 3049 3051 3052 3056 3059 3061 3067 3068 3072 3076 3084
3058 3051 3054 3054 3053 3051 3049 3048 3050 3046 3047 3047 3036 3032 3031 3028 3026 3032 3033 3033 3035 3035 3037 3040 3042 3041 3042 3043 3042 3039 3036 3037 3036 3039 3041 3045 3048 3049 3050 3055 3058 3063 3068 3071
3056 3047 3049 3047 3047 3045 3046 3046 3043 3042 3042 3036 3026 3024 3023 3022 3016 3027 3029 3031 3032 3032 3034 3035 3037 3037 3038 3037 3037 3034 3032 3030 3030 3030 3029 3035 3037 3040 3042 3045 3047 3050 3056 3063
3051 3048 3043 3044 3042 3040 3040 3038 3036 3035 3034 3030 3024 3021 3021 3023 3025 3025 3026 3026 3027 3028 3029 3030 3031 3032 3032 3030 3031 3030 3027 3025 3024 3023 3021 3021 3024 3027 3030 3032 3035 3038 3044 3049
3046 3041 3036 3038 3036 3035 3034 3031 3032 3027 3025 3024 3025 3011 3022 3021 3020 3023 3023 3024 3022 3020 3021 3023 3024 3024 3024 3022 3024 3024 3023 3022 3020 3016 3015 3012 3011 3013 3018 3022 3026 3030 3032 3036
3041 3037 3034 3031 3034 3029 3023 3023 3023 3023 3019 3016 3018 3004 3017 3015 3016 3018 3014 3015 3010 3015 3015 3015 3015 3015 3015 3015 3016 3015 3014 3013 3011 3009 3007 3005 3003 3006 3007 3009 3013 3018 3022 3026
3034 3033 3032 3029 3027 3026 3024 3023 3020 3019 3018 3014 3011 3006 3010 3011 3007 3008 3011 3010 3007 3009 3008 3007 3006 3006 3006 3006 3007 3006 3006 3005 3003 2998 2999 2996 2992 2994 2998 2998 3001 3005 3011 3014
3028 3026 3026 3024 3023 3021 3016 3014 3013 3012 3011 3014 3009 3005 3004 3005 3004 3005 3001 2997 3000 3001 2999 3000 2997 2998 2995 2996 2996 2997 2996 2993 2992 2994 2989 2985 2983 2983 2984 2987 2988 2991 2995 3000
3022 3018 3020 3017 3018 3016 3010 3007 3005 3003 3003 3001 3001 2995 2998 2996 2997 2996 2995 2995 2992 2989 2991 2992 2990 2988 2988 2986 2986 2985 2979 2980 2979 2978 2977 2976 2974 2972 2972 2971 2974 2977 2981 2986
3020 3018 3017 3010 3013 3010 3004 2999 2995 2995 2994 2995 2993 2990 2987 2982 2987 2984 2981 2981 2981 2981 2982 2980 2978 2975 2972 2973 2971 2968 2967 2966 2966 2965 2962 2961 2959 2957 2958 2959 2960 2963 2968 2973
3014 3015 3014 3011 3009 3004 2994 2993 2992 2991 2991 2988 2985 2983 2981 2980 2977 2979 2980 2978 2976 2976 2972 2968 2965 2963 2962 2961 2958 2956 2953 2951 2949 2946 2945 2945 2944 2942 2940 2943 2944 2948 2953 2958
3011 3012 3011 3009 3005 2996 2992 2990 2989 2988 2986 2983 2982 2980 2977 2979 2976 2975 2975 2973 2964 2962 2958 2954 2953 2950 2948 2945 2943 2939 2936 2934 2930 2926 2926 2926 2926 2923 2921 2921 2924 2931 2937 2943
3006 3007 3008 3006 3004 2995 2990 2988 2987 2987 2983 2979 2979 2977 2976 2973 2968 2967 2962 2957 2954 2953 2949 2944 2940 2937 2934 2931 2928 2922 2917 2914 2910 2908 2904 2902 2901 2900 2902 2903 2910 2912 2920 2928
3004 3003 3002 3002 3001 2995 2989 2987 2985 2986 2984 2976 2974 2972 2970 2966 2962 2954 2949 2945 2941 2937 2933 2930 2926 2921 2918 2915 2909 2902 2899 2894 2892 2887 2882 2877 2874 2874 2878 2884 2889 2894 2904 2914
3003 3002 3000 2998 2997 2993 2987 2985 2985 2983 2975 2971 2966 2963 2958 2953 2947 2941 2938 2932 2926 2924 2920 2915 2908 2904 2899 2896 2889 2881 2878 2875 2868 2862 2853 2847 2844 2843 2848 2855 2865 2873 2888 2900
3002 3001 3000 2999 2993 2991 2986 2983 2980 2975 2968 2962 2956 2951 2944 2937 2932 2927 2922 2918 2914 2911 2905 2899 2891 2883 2881 2876 2871 2862 2858 2854 2844 2837 2824 2809 2800 2802 2821 2833 2846 2862 2878 2891
3001 3000 2997 2995 2992 2987 2981 2979 2974 2968 2960 2952 2945 2936 2930 2923 2918 2912 2906 2900 2899 2894 2887 2881 2874 2870 2865 2862 2855 2851 2847 2840 2827 2818 2806 2787 2767 2771 2795 2817 2835 2854 2871 2888
2998 2996 2991 2989 2986 2978 2978 2972 2964 2955 2948 2939 2930 2922 2913 2906 2899 2894 2887 2885 2881 2877 2874 2870 2865 2860 2856 2850 2846 2845 2840 2835 2827 2815 2807 2789 2769 2774 2794 2816 2835 2855 2872 2886
2994 2991 2988 2982 2980 2975 2969 2962 2955 2944 2935 2927 2915 2903 2898 2891 2885 2879 2875 2873 2871 2869 2868 2863 2858 2855 2850 2845 2843 2839 2833 2823 2819 2823 2818 2812 2807 2807 2816 2830 2848 2860 2874 2890